Location: Newark
(39.0622°N, 106.5590°E)
Time: 13:19:03
(UTC+00:00)

S-56A Canister/Altair - Pass Details

Date: 29 January 2020
Orbit: 633 x 2500 km, 38.9° (Epoch: 24 February)

Event Time Altitude Azimuth Distance (km) Brightness Sun altitude
Rises 10:31:28 0° 224° (SW) 5,236 13.1 -4.7°
Reaches altitude 10° 10:35:37 10° 218° (SW) 3,934 12.1 -5.4°
Maximum altitude 10:44:21 39° 154° (SSE) 1,785 9.3 -7.0°
Drops below altitude 10° 10:50:23 10° 88° (E) 2,708 9.7 -8.2°
Enters shadow 10:50:38 - 87° (E) 2,784 9.8 -8.2°
